Location: Colle Santa Colomba
(42.0333°N, 12.5667°E)
Time: 22:11:52
(UTC+00:00)

Cosmos 371 Rocket - Pass Details

Date: 25 October 2021
Orbit: 684 x 699 km, 74.0° (Epoch: 04 December)

Event Time Altitude Azimuth Distance (km) Brightness Sun altitude
Rises 17:04:43 0° 205° (SSW) 3,054 7.1 -10.2°
Reaches altitude 10° 17:07:02 10° 208° (SSW) 2,144 6.3 -10.7°
Maximum altitude 17:11:51 67° 291° (WNW) 755 3.7 -11.6°
Drops below altitude 10° 17:16:43 10° 15° (NNE) 2,167 5.6 -12.5°
Sets 17:19:04 0° 18° (NNE) 3,090 6.4 -12.9°
